Location: Banska Bystrica
(48.7330°N, 19.1500°E)
Time: 04:12:36
(UTC+02:00)

ISS - Pass Details

Date: 01 April 2019
Orbit: 408 x 410 km, 51.6° (Epoch: 20 April)

Event Time Altitude Azimuth Distance (km) Brightness Sun altitude
Rises 20:10:40 0° 285° (WNW) 2,339 2.4 -10.0°
Reaches altitude 10° 20:12:47 10° 290° (WNW) 1,476 0.7 -10.3°
Maximum altitude 20:16:03 55° 9° (N) 500 -3.3 -10.8°
Enters shadow 20:18:31 16° 85° (E) 1,165 -2.1 -11.2°
